Location: Balaclava NSW 2575, Australia
(34.4510°S, 150.4953°E)
Time: 19:51:54
(UTC+10:00)

deb Explorer IX - Visible Passes

Search period start: 15 June 2021 00:00
Search period end: 25 June 2021 00:00
Orbit: 542 x 1097 km, 38.8° (Epoch: 14 June)

Date Brightness Start Highest point End Pass type
(mag) Time Alt. Az. Time Alt. Az. Time Alt. Az.
15 Jun ? 18:01:56 10° NNW 18:08:17 34° NE 18:12:27 19° E visible
15 Jun ? 19:47:59 10° WNW 19:53:42 57° WNW 19:53:42 57° WNW visible
16 Jun ? 17:37:56 10° NNW 17:44:15 34° NE 17:49:59 13° E visible
16 Jun ? 19:23:57 10° WNW 19:31:14 85° N 19:31:14 85° N visible
16 Jun ? 21:11:51 10° W 21:12:29 13° W 21:12:29 13° W visible
17 Jun ? 17:13:59 10° NNW 17:20:13 33° NE 17:26:37 10° E visible
17 Jun ? 18:59:56 10° WNW 19:07:16 85° NNE 19:08:43 61° ESE visible
17 Jun ? 20:47:46 10° W 20:49:58 21° W 20:49:58 21° W visible
18 Jun ? 18:35:55 10° WNW 18:43:12 85° NNE 18:46:09 40° ESE visible
18 Jun ? 20:23:42 10° W 20:27:24 31° WSW 20:27:24 31° WSW visible
19 Jun ? 18:11:55 10° WNW 18:19:08 85° NNE 18:23:34 27° ESE visible
19 Jun ? 19:59:38 10° W 20:04:48 45° WSW 20:04:48 45° WSW visible
20 Jun ? 17:47:56 10° WNW 17:55:04 85° NNE 18:00:57 17° ESE visible
20 Jun ? 19:35:36 10° W 19:42:11 60° SSW 19:42:11 60° SSW visible
21 Jun ? 17:23:59 10° WNW 17:31:00 85° NNE 17:38:19 10° ESE visible
21 Jun ? 19:11:34 10° W 19:18:49 63° S 19:19:33 60° SSE visible
21 Jun ? 20:59:26 10° WSW 21:00:48 16° WSW 21:00:48 16° WSW visible
22 Jun ? 18:47:34 10° W 18:54:44 63° S 18:56:55 45° SE visible
22 Jun ? 20:35:22 10° WSW 20:38:09 25° WSW 20:38:09 25° WSW visible
23 Jun ? 18:23:33 10° W 18:30:39 63° S 18:34:18 31° ESE visible
23 Jun ? 20:11:18 10° WSW 20:15:32 37° WSW 20:15:32 37° WSW visible
24 Jun ? 17:59:34 10° W 18:06:35 63° S 18:11:41 21° ESE visible
24 Jun ? 19:47:15 10° WSW 19:52:56 55° SW 19:52:56 55° SW visible
